Weather in Apia

Samoa     13°49′56″S   171°45′55″W
temp.,
°C
wind,
m/s
gust,
m/s
humid.,
%
clouds,
%
prec.,
mm/h
press.,
hPa
HPBL,
m
2 march, tue
tue223:00+28e5573100 0.0 1012942
02:00+28ese6675100 0.1 1012815
05:00+28e5676100 0.8 1010786
08:00+28e7876100 2.2 1012798
11:00+28ene8107599 0.4 1012991
14:00+28ene897598 0.9 1012846
17:00+28ene787597 0.1 1009935
20:00+28ene677699 2.1 1011985
3 march, wed
wed323:00+28ene6774100 0.1 1012894
02:00+28ene5677100 1.1 1012702
05:00+28ene5677100 0.7 1011848
08:00+28e6778100 0.9 1012675
11:00+28e667845 0.0 1013751
14:00+28ene567440 0.1 1012765
17:00+28ene667578 0.0 1010838
20:00+28e667982 0.0 1011818
4 march, thu
thu423:00+28e6776100 0.0 1013849
02:00+28e6778100 0.0 1012839
05:00+28e6779100 0.1 1010770
08:00+28ese678194 0.1 1011789
11:00+28e7780100 0.3 1012747
14:00+28e6678100 0.3 1010801
17:00+28ese6778100 0.1 1008748
20:00+29ese8977100 4.4 1009733
5 march, fri
fri523:00+28e898061 0.3 1010786
02:00+28e788180 0.8 1010826
05:00+28e778099 0.1 1008767
08:00+28ese677990 0.1 1009780
11:00+28e787991 0.3 1011871
14:00+28e677996 0.7 1009781
17:00+28e788168 0.3 1008808
20:00+28e788043 1.1 1009791
6 march, sat
sat623:00+28e787850 2.3 1011772
02:00+28e667974 2.7 1010691
05:00+28e5577100 0.4 1009742
08:00+28e4476100 0.4 1010620
11:00+28ene5676100 0.0 1011735
14:00+28ene5575100 0.0 1010872
17:00+29ene4472100 0.0 1009978
20:00+29ne447395 0.0 1010919